owner,sensor,date,latitude,longitude,sea_surface_height_above_sea_level,qcFlag 
COMPS,ioos:station:USF.COMPS:SHP:1,2011-06-01T00:00:00Z,30.0600,-84.2910,-0.716,1111122 
COMPS,ioos:station:USF.COMPS:SHP:1,2011-06-01T00:06:00Z,30.0600,-84.2910,-0.732,1111122 
COMPS,ioos:station:USF.COMPS:SHP:1,2011-06-01T00:12:00Z,30.0600,-84.2910,-0.75,1111122 
COMPS,ioos:station:USF.COMPS:SHP:1,2011-06-01T00:18:00Z,30.0600,-84.2910,-0.765,1111122 
COMPS,ioos:station:USF.COMPS:SHP:1,2011-06-01T00:24:00Z,30.0600,-84.2910,-0.779,1111122 
COMPS,ioos:station:USF.COMPS:SHP:1,2011-06-01T00:30:00Z,30.0600,-84.2910,-0.789,1111122 
COMPS,ioos:station:USF.COMPS:SHP:1,2011-06-01T00:36:00Z,30.0600,-84.2910,-0.799,1111122 
COMPS,ioos:station:USF.COMPS:SHP:1,2011-06-01T00:42:00Z,30.0600,-84.2910,-0.809,1111122 
COMPS,ioos:station:USF.COMPS:SHP:1,2011-06-01T00:48:00Z,30.0600,-84.2910,-0.817,1111122 
COMPS,ioos:station:USF.COMPS:SHP:1,2011-06-01T00:54:00Z,30.0600,-84.2910,-0.795,1111122 
COMPS,ioos:station:USF.COMPS:SHP:1,2011-06-01T01:00:00Z,30.0600,-84.2910,-0.795,1111122 
COMPS,ioos:station:USF.COMPS:SHP:1,2011-06-01T01:06:00Z,30.0600,-84.2910,-0.795,1111122 
COMPS,ioos:station:USF.COMPS:SHP:1,2011-06-01T01:12:00Z,30.0600,-84.2910,-0.795,1111122 
COMPS,ioos:station:USF.COMPS:SHP:1,2011-06-01T01:18:00Z,30.0600,-84.2910,-0.795,1111122 
COMPS,ioos:station:USF.COMPS:SHP:1,2011-06-01T01:24:00Z,30.0600,-84.2910,-0.795,1111122 
COMPS,ioos:station:USF.COMPS:SHP:1,2011-06-01T01:30:00Z,30.0600,-84.2910,-0.796,1111122 
COMPS,ioos:station:USF.COMPS:SHP:1,2011-06-01T01:36:00Z,30.0600,-84.2910,-0.803,1111122 
COMPS,ioos:station:USF.COMPS:SHP:1,2011-06-01T01:42:00Z,30.0600,-84.2910,-0.815,1111122 
COMPS,ioos:station:USF.COMPS:SHP:1,2011-06-01T01:48:00Z,30.0600,-84.2910,-0.804,1111122 
COMPS,ioos:station:USF.COMPS:SHP:1,2011-06-01T01:54:00Z,30.0600,-84.2910,-0.792,1111122 
COMPS,ioos:station:USF.COMPS:SHP:1,2011-06-01T02:00:00Z,30.0600,-84.2910,-0.779,1111122 
COMPS,ioos:station:USF.COMPS:SHP:1,2011-06-01T02:06:00Z,30.0600,-84.2910,-0.766,1111122 
COMPS,ioos:station:USF.COMPS:SHP:1,2011-06-01T02:12:00Z,30.0600,-84.2910,-0.751,1111122 
COMPS,ioos:station:USF.COMPS:SHP:1,2011-06-01T02:18:00Z,30.0600,-84.2910,-0.735,1111122 
COMPS,ioos:station:USF.COMPS:SHP:1,2011-06-01T02:24:00Z,30.0600,-84.2910,-0.717,1111122 
COMPS,ioos:station:USF.COMPS:SHP:1,2011-06-01T02:30:00Z,30.0600,-84.2910,-0.702,1111122 
COMPS,ioos:station:USF.COMPS:SHP:1,2011-06-01T02:36:00Z,30.0600,-84.2910,-0.685,1111122 
COMPS,ioos:station:USF.COMPS:SHP:1,2011-06-01T02:42:00Z,30.0600,-84.2910,-0.667,1111122 
COMPS,ioos:station:USF.COMPS:SHP:1,2011-06-01T02:48:00Z,30.0600,-84.2910,-0.648,1111122 
COMPS,ioos:station:USF.COMPS:SHP:1,2011-06-01T02:54:00Z,30.0600,-84.2910,-0.628,1111122 
COMPS,ioos:station:USF.COMPS:SHP:1,2011-06-01T03:00:00Z,30.0600,-84.2910,-0.607,1111122 
COMPS,ioos:station:USF.COMPS:SHP:1,2011-06-01T03:06:00Z,30.0600,-84.2910,-0.585,1111122 
COMPS,ioos:station:USF.COMPS:SHP:1,2011-06-01T03:12:00Z,30.0600,-84.2910,-0.561,1111122 
COMPS,ioos:station:USF.COMPS:SHP:1,2011-06-01T03:18:00Z,30.0600,-84.2910,-0.538,1111122 
COMPS,ioos:station:USF.COMPS:SHP:1,2011-06-01T03:24:00Z,30.0600,-84.2910,-0.516,1111122 
COMPS,ioos:station:USF.COMPS:SHP:1,2011-06-01T03:30:00Z,30.0600,-84.2910,-0.492,1111122 
COMPS,ioos:station:USF.COMPS:SHP:1,2011-06-01T03:36:00Z,30.0600,-84.2910,-0.467,1111122 
COMPS,ioos:station:USF.COMPS:SHP:1,2011-06-01T03:42:00Z,30.0600,-84.2910,-0.441,1111122 
COMPS,ioos:station:USF.COMPS:SHP:1,2011-06-01T03:48:00Z,30.0600,-84.2910,-0.415,1111122 
COMPS,ioos:station:USF.COMPS:SHP:1,2011-06-01T03:54:00Z,30.0600,-84.2910,-0.386,1111122 
COMPS,ioos:station:USF.COMPS:SHP:1,2011-06-01T04:00:00Z,30.0600,-84.2910,-0.358,1111122 
COMPS,ioos:station:USF.COMPS:SHP:1,2011-06-01T04:06:00Z,30.0600,-84.2910,-0.328,1111122 
COMPS,ioos:station:USF.COMPS:SHP:1,2011-06-01T04:12:00Z,30.0600,-84.2910,-0.294,1111122 
COMPS,ioos:station:USF.COMPS:SHP:1,2011-06-01T04:18:00Z,30.0600,-84.2910,-0.261,1111122 
COMPS,ioos:station:USF.COMPS:SHP:1,2011-06-01T04:24:00Z,30.0600,-84.2910,-0.23,1111122 
COMPS,ioos:station:USF.COMPS:SHP:1,2011-06-01T04:30:00Z,30.0600,-84.2910,-0.199,1111122 
COMPS,ioos:station:USF.COMPS:SHP:1,2011-06-01T04:36:00Z,30.0600,-84.2910,-0.171,1111122 
COMPS,ioos:station:USF.COMPS:SHP:1,2011-06-01T04:42:00Z,30.0600,-84.2910,-0.141,1111122 
COMPS,ioos:station:USF.COMPS:SHP:1,2011-06-01T04:48:00Z,30.0600,-84.2910,-0.109,1111122 
COMPS,ioos:station:USF.COMPS:SHP:1,2011-06-01T04:54:00Z,30.0600,-84.2910,-0.08,1111122 
COMPS,ioos:station:USF.COMPS:SHP:1,2011-06-01T05:00:00Z,30.0600,-84.2910,-0.049,1111122 
COMPS,ioos:station:USF.COMPS:SHP:1,2011-06-01T05:06:00Z,30.0600,-84.2910,-0.017,1111122 
COMPS,ioos:station:USF.COMPS:SHP:1,2011-06-01T05:12:00Z,30.0600,-84.2910,0.009,1111122 
COMPS,ioos:station:USF.COMPS:SHP:1,2011-06-01T05:18:00Z,30.0600,-84.2910,0.037,1111122 
COMPS,ioos:station:USF.COMPS:SHP:1,2011-06-01T05:24:00Z,30.0600,-84.2910,0.066,1111122 
COMPS,ioos:station:USF.COMPS:SHP:1,2011-06-01T05:30:00Z,30.0600,-84.2910,0.09,1111122 
COMPS,ioos:station:USF.COMPS:SHP:1,2011-06-01T05:36:00Z,30.0600,-84.2910,0.112,1111122 
COMPS,ioos:station:USF.COMPS:SHP:1,2011-06-01T05:42:00Z,30.0600,-84.2910,0.13,1111122 
COMPS,ioos:station:USF.COMPS:SHP:1,2011-06-01T05:48:00Z,30.0600,-84.2910,0.149,1111122 
COMPS,ioos:station:USF.COMPS:SHP:1,2011-06-01T05:54:00Z,30.0600,-84.2910,0.165,1111122 
COMPS,ioos:station:USF.COMPS:SHP:1,2011-06-01T06:00:00Z,30.0600,-84.2910,0.179,1111122 
COMPS,ioos:station:USF.COMPS:SHP:1,2011-06-01T06:06:00Z,30.0600,-84.2910,0.194,1111122 
COMPS,ioos:station:USF.COMPS:SHP:1,2011-06-01T06:12:00Z,30.0600,-84.2910,0.215,1111122 
COMPS,ioos:station:USF.COMPS:SHP:1,2011-06-01T06:18:00Z,30.0600,-84.2910,0.235,1111122 
COMPS,ioos:station:USF.COMPS:SHP:1,2011-06-01T06:24:00Z,30.0600,-84.2910,0.248,1111122 
COMPS,ioos:station:USF.COMPS:SHP:1,2011-06-01T06:30:00Z,30.0600,-84.2910,0.26,1111122 
COMPS,ioos:station:USF.COMPS:SHP:1,2011-06-01T06:36:00Z,30.0600,-84.2910,0.273,1111122 
COMPS,ioos:station:USF.COMPS:SHP:1,2011-06-01T06:42:00Z,30.0600,-84.2910,0.285,1111122 
COMPS,ioos:station:USF.COMPS:SHP:1,2011-06-01T06:48:00Z,30.0600,-84.2910,0.294,1111122 
COMPS,ioos:station:USF.COMPS:SHP:1,2011-06-01T06:54:00Z,30.0600,-84.2910,0.305,1111122 
COMPS,ioos:station:USF.COMPS:SHP:1,2011-06-01T07:00:00Z,30.0600,-84.2910,0.314,1111122 
COMPS,ioos:station:USF.COMPS:SHP:1,2011-06-01T07:06:00Z,30.0600,-84.2910,0.313,1111122 
COMPS,ioos:station:USF.COMPS:SHP:1,2011-06-01T07:12:00Z,30.0600,-84.2910,0.311,1111122 
COMPS,ioos:station:USF.COMPS:SHP:1,2011-06-01T07:18:00Z,30.0600,-84.2910,0.314,1111122 
COMPS,ioos:station:USF.COMPS:SHP:1,2011-06-01T07:24:00Z,30.0600,-84.2910,0.316,1111122 
COMPS,ioos:station:USF.COMPS:SHP:1,2011-06-01T07:30:00Z,30.0600,-84.2910,0.317,1111122 
COMPS,ioos:station:USF.COMPS:SHP:1,2011-06-01T07:36:00Z,30.0600,-84.2910,0.314,1111122 
COMPS,ioos:station:USF.COMPS:SHP:1,2011-06-01T07:42:00Z,30.0600,-84.2910,0.31,1111122 
COMPS,ioos:station:USF.COMPS:SHP:1,2011-06-01T07:48:00Z,30.0600,-84.2910,0.307,1111122 
COMPS,ioos:station:USF.COMPS:SHP:1,2011-06-01T07:54:00Z,30.0600,-84.2910,0.302,1111122 
COMPS,ioos:station:USF.COMPS:SHP:1,2011-06-01T08:00:00Z,30.0600,-84.2910,0.293,1111122 
COMPS,ioos:station:USF.COMPS:SHP:1,2011-06-01T08:06:00Z,30.0600,-84.2910,0.282,1111122 
COMPS,ioos:station:USF.COMPS:SHP:1,2011-06-01T08:12:00Z,30.0600,-84.2910,0.268,1111122 
COMPS,ioos:station:USF.COMPS:SHP:1,2011-06-01T08:18:00Z,30.0600,-84.2910,0.254,1111122 
COMPS,ioos:station:USF.COMPS:SHP:1,2011-06-01T08:24:00Z,30.0600,-84.2910,0.248,1111122 
COMPS,ioos:station:USF.COMPS:SHP:1,2011-06-01T08:30:00Z,30.0600,-84.2910,0.239,1111122 
COMPS,ioos:station:USF.COMPS:SHP:1,2011-06-01T08:36:00Z,30.0600,-84.2910,0.226,1111122 
COMPS,ioos:station:USF.COMPS:SHP:1,2011-06-01T08:42:00Z,30.0600,-84.2910,0.209,1111122 
COMPS,ioos:station:USF.COMPS:SHP:1,2011-06-01T08:48:00Z,30.0600,-84.2910,0.187,1111122 
COMPS,ioos:station:USF.COMPS:SHP:1,2011-06-01T08:54:00Z,30.0600,-84.2910,0.167,1111122 
COMPS,ioos:station:USF.COMPS:SHP:1,2011-06-01T09:00:00Z,30.0600,-84.2910,0.154,1111122 
COMPS,ioos:station:USF.COMPS:SHP:1,2011-06-01T09:06:00Z,30.0600,-84.2910,0.14,1111122 
COMPS,ioos:station:USF.COMPS:SHP:1,2011-06-01T09:12:00Z,30.0600,-84.2910,0.119,1111122 
COMPS,ioos:station:USF.COMPS:SHP:1,2011-06-01T09:18:00Z,30.0600,-84.2910,0.097,1111122 
COMPS,ioos:station:USF.COMPS:SHP:1,2011-06-01T09:24:00Z,30.0600,-84.2910,0.082,1111122 
COMPS,ioos:station:USF.COMPS:SHP:1,2011-06-01T09:30:00Z,30.0600,-84.2910,0.068,1111122 
COMPS,ioos:station:USF.COMPS:SHP:1,2011-06-01T09:36:00Z,30.0600,-84.2910,0.043,1111122 
COMPS,ioos:station:USF.COMPS:SHP:1,2011-06-01T09:42:00Z,30.0600,-84.2910,0.016,1111122 
COMPS,ioos:station:USF.COMPS:SHP:1,2011-06-01T09:48:00Z,30.0600,-84.2910,-0.005,1111122 
COMPS,ioos:station:USF.COMPS:SHP:1,2011-06-01T09:54:00Z,30.0600,-84.2910,-0.027,1111122 
COMPS,ioos:station:USF.COMPS:SHP:1,2011-06-01T10:00:00Z,30.0600,-84.2910,-0.052,1111122 
COMPS,ioos:station:USF.COMPS:SHP:1,2011-06-01T10:06:00Z,30.0600,-84.2910,-0.072,1111122 
COMPS,ioos:station:USF.COMPS:SHP:1,2011-06-01T10:12:00Z,30.0600,-84.2910,-0.089,1111122 
COMPS,ioos:station:USF.COMPS:SHP:1,2011-06-01T10:18:00Z,30.0600,-84.2910,-0.11,1111122 
COMPS,ioos:station:USF.COMPS:SHP:1,2011-06-01T10:24:00Z,30.0600,-84.2910,-0.131,1111122 
COMPS,ioos:station:USF.COMPS:SHP:1,2011-06-01T10:30:00Z,30.0600,-84.2910,-0.149,1111122 
COMPS,ioos:station:USF.COMPS:SHP:1,2011-06-01T10:36:00Z,30.0600,-84.2910,-0.165,1111122 
COMPS,ioos:station:USF.COMPS:SHP:1,2011-06-01T10:42:00Z,30.0600,-84.2910,-0.184,1111122 
COMPS,ioos:station:USF.COMPS:SHP:1,2011-06-01T10:48:00Z,30.0600,-84.2910,-0.206,1111122 
COMPS,ioos:station:USF.COMPS:SHP:1,2011-06-01T10:54:00Z,30.0600,-84.2910,-0.222,1111122 
COMPS,ioos:station:USF.COMPS:SHP:1,2011-06-01T11:00:00Z,30.0600,-84.2910,-0.235,1111122 
COMPS,ioos:station:USF.COMPS:SHP:1,2011-06-01T11:06:00Z,30.0600,-84.2910,-0.248,1111122 
COMPS,ioos:station:USF.COMPS:SHP:1,2011-06-01T11:12:00Z,30.0600,-84.2910,-0.259,1111122 
COMPS,ioos:station:USF.COMPS:SHP:1,2011-06-01T11:18:00Z,30.0600,-84.2910,-0.269,1111122 
COMPS,ioos:station:USF.COMPS:SHP:1,2011-06-01T11:24:00Z,30.0600,-84.2910,-0.278,1111122 
COMPS,ioos:station:USF.COMPS:SHP:1,2011-06-01T11:30:00Z,30.0600,-84.2910,-0.285,1111122 
COMPS,ioos:station:USF.COMPS:SHP:1,2011-06-01T11:36:00Z,30.0600,-84.2910,-0.292,1111122 
COMPS,ioos:station:USF.COMPS:SHP:1,2011-06-01T11:42:00Z,30.0600,-84.2910,-0.298,1111122 
COMPS,ioos:station:USF.COMPS:SHP:1,2011-06-01T11:48:00Z,30.0600,-84.2910,-0.307,1111122 
COMPS,ioos:station:USF.COMPS:SHP:1,2011-06-01T11:54:00Z,30.0600,-84.2910,-0.317,1111122 
COMPS,ioos:station:USF.COMPS:SHP:1,2011-06-01T12:00:00Z,30.0600,-84.2910,-0.318,1111122 
COMPS,ioos:station:USF.COMPS:SHP:1,2011-06-01T12:06:00Z,30.0600,-84.2910,-0.314,1111122 
COMPS,ioos:station:USF.COMPS:SHP:1,2011-06-01T12:12:00Z,30.0600,-84.2910,-0.314,1111122 
COMPS,ioos:station:USF.COMPS:SHP:1,2011-06-01T12:18:00Z,30.0600,-84.2910,-0.32,1111122 
COMPS,ioos:station:USF.COMPS:SHP:1,2011-06-01T12:24:00Z,30.0600,-84.2910,-0.324,1111122 
COMPS,ioos:station:USF.COMPS:SHP:1,2011-06-01T12:30:00Z,30.0600,-84.2910,-0.316,1111122 
COMPS,ioos:station:USF.COMPS:SHP:1,2011-06-01T12:36:00Z,30.0600,-84.2910,-0.305,1111122 
COMPS,ioos:station:USF.COMPS:SHP:1,2011-06-01T12:42:00Z,30.0600,-84.2910,-0.299,1111122 
COMPS,ioos:station:USF.COMPS:SHP:1,2011-06-01T12:48:00Z,30.0600,-84.2910,-0.29,1111122 
COMPS,ioos:station:USF.COMPS:SHP:1,2011-06-01T12:54:00Z,30.0600,-84.2910,-0.276,1111122 
COMPS,ioos:station:USF.COMPS:SHP:1,2011-06-01T13:00:00Z,30.0600,-84.2910,-0.264,1111122 
COMPS,ioos:station:USF.COMPS:SHP:1,2011-06-01T13:06:00Z,30.0600,-84.2910,-0.258,1111122 
COMPS,ioos:station:USF.COMPS:SHP:1,2011-06-01T13:12:00Z,30.0600,-84.2910,-0.251,1111122 
COMPS,ioos:station:USF.COMPS:SHP:1,2011-06-01T13:18:00Z,30.0600,-84.2910,-0.244,1111122 
COMPS,ioos:station:USF.COMPS:SHP:1,2011-06-01T13:24:00Z,30.0600,-84.2910,-0.237,1111122 
COMPS,ioos:station:USF.COMPS:SHP:1,2011-06-01T13:30:00Z,30.0600,-84.2910,-0.228,1111122 
COMPS,ioos:station:USF.COMPS:SHP:1,2011-06-01T13:36:00Z,30.0600,-84.2910,-0.217,1111122 
COMPS,ioos:station:USF.COMPS:SHP:1,2011-06-01T13:42:00Z,30.0600,-84.2910,-0.203,1111122 
COMPS,ioos:station:USF.COMPS:SHP:1,2011-06-01T13:48:00Z,30.0600,-84.2910,-0.187,1111122 
COMPS,ioos:station:USF.COMPS:SHP:1,2011-06-01T13:54:00Z,30.0600,-84.2910,-0.176,1111122 
COMPS,ioos:station:USF.COMPS:SHP:1,2011-06-01T15:00:00Z,30.0600,-84.2910,0.046,1111122 
COMPS,ioos:station:USF.COMPS:SHP:1,2011-06-01T15:06:00Z,30.0600,-84.2910,0.067,1111122 
COMPS,ioos:station:USF.COMPS:SHP:1,2011-06-01T15:12:00Z,30.0600,-84.2910,0.089,1111122 
COMPS,ioos:station:USF.COMPS:SHP:1,2011-06-01T15:18:00Z,30.0600,-84.2910,0.109,1111122 
COMPS,ioos:station:USF.COMPS:SHP:1,2011-06-01T15:24:00Z,30.0600,-84.2910,0.13,1111122 
COMPS,ioos:station:USF.COMPS:SHP:1,2011-06-01T15:30:00Z,30.0600,-84.2910,0.153,1111122 
COMPS,ioos:station:USF.COMPS:SHP:1,2011-06-01T15:36:00Z,30.0600,-84.2910,0.173,1111122 
COMPS,ioos:station:USF.COMPS:SHP:1,2011-06-01T15:42:00Z,30.0600,-84.2910,0.197,1111122 
COMPS,ioos:station:USF.COMPS:SHP:1,2011-06-01T15:48:00Z,30.0600,-84.2910,0.221,1111122 
COMPS,ioos:station:USF.COMPS:SHP:1,2011-06-01T15:54:00Z,30.0600,-84.2910,0.239,1111122 
COMPS,ioos:station:USF.COMPS:SHP:1,2011-06-01T17:00:00Z,30.0600,-84.2910,0.439,1111122 
COMPS,ioos:station:USF.COMPS:SHP:1,2011-06-01T17:06:00Z,30.0600,-84.2910,0.461,1111122 
COMPS,ioos:station:USF.COMPS:SHP:1,2011-06-01T17:12:00Z,30.0600,-84.2910,0.473,1111122 
COMPS,ioos:station:USF.COMPS:SHP:1,2011-06-01T17:18:00Z,30.0600,-84.2910,0.482,1111122 
COMPS,ioos:station:USF.COMPS:SHP:1,2011-06-01T17:24:00Z,30.0600,-84.2910,0.493,1111122 
COMPS,ioos:station:USF.COMPS:SHP:1,2011-06-01T17:30:00Z,30.0600,-84.2910,0.5,1111122 
COMPS,ioos:station:USF.COMPS:SHP:1,2011-06-01T17:36:00Z,30.0600,-84.2910,0.506,1111122 
COMPS,ioos:station:USF.COMPS:SHP:1,2011-06-01T17:42:00Z,30.0600,-84.2910,0.518,1111122 
COMPS,ioos:station:USF.COMPS:SHP:1,2011-06-01T17:48:00Z,30.0600,-84.2910,0.526,1111122 
COMPS,ioos:station:USF.COMPS:SHP:1,2011-06-01T17:54:00Z,30.0600,-84.2910,0.527,1111122 
COMPS,ioos:station:USF.COMPS:SHP:1,2011-06-01T18:00:00Z,30.0600,-84.2910,0.542,1111122 
COMPS,ioos:station:USF.COMPS:SHP:1,2011-06-01T18:06:00Z,30.0600,-84.2910,0.55,1111122 
COMPS,ioos:station:USF.COMPS:SHP:1,2011-06-01T18:12:00Z,30.0600,-84.2910,0.553,1111122 
COMPS,ioos:station:USF.COMPS:SHP:1,2011-06-01T18:18:00Z,30.0600,-84.2910,0.559,1111122 
COMPS,ioos:station:USF.COMPS:SHP:1,2011-06-01T18:24:00Z,30.0600,-84.2910,0.565,1111122 
COMPS,ioos:station:USF.COMPS:SHP:1,2011-06-01T18:30:00Z,30.0600,-84.2910,0.57,1111122 
COMPS,ioos:station:USF.COMPS:SHP:1,2011-06-01T18:36:00Z,30.0600,-84.2910,0.558,1111122 
COMPS,ioos:station:USF.COMPS:SHP:1,2011-06-01T18:42:00Z,30.0600,-84.2910,0.543,1111122 
COMPS,ioos:station:USF.COMPS:SHP:1,2011-06-01T18:48:00Z,30.0600,-84.2910,0.544,1111122 
COMPS,ioos:station:USF.COMPS:SHP:1,2011-06-01T18:54:00Z,30.0600,-84.2910,0.54,1111122 
COMPS,ioos:station:USF.COMPS:SHP:1,2011-06-01T19:00:00Z,30.0600,-84.2910,0.529,1111122 
COMPS,ioos:station:USF.COMPS:SHP:1,2011-06-01T19:06:00Z,30.0600,-84.2910,0.528,1111122 
COMPS,ioos:station:USF.COMPS:SHP:1,2011-06-01T19:12:00Z,30.0600,-84.2910,0.526,1111122 
COMPS,ioos:station:USF.COMPS:SHP:1,2011-06-01T19:18:00Z,30.0600,-84.2910,0.515,1111122 
COMPS,ioos:station:USF.COMPS:SHP:1,2011-06-01T19:24:00Z,30.0600,-84.2910,0.495,1111122 
COMPS,ioos:station:USF.COMPS:SHP:1,2011-06-01T19:30:00Z,30.0600,-84.2910,0.478,1111122 
COMPS,ioos:station:USF.COMPS:SHP:1,2011-06-01T19:36:00Z,30.0600,-84.2910,0.473,1111122 
COMPS,ioos:station:USF.COMPS:SHP:1,2011-06-01T19:42:00Z,30.0600,-84.2910,0.455,1111122 
COMPS,ioos:station:USF.COMPS:SHP:1,2011-06-01T19:48:00Z,30.0600,-84.2910,0.437,1111122 
COMPS,ioos:station:USF.COMPS:SHP:1,2011-06-01T19:54:00Z,30.0600,-84.2910,0.436,1111122 
COMPS,ioos:station:USF.COMPS:SHP:1,2011-06-01T20:00:00Z,30.0600,-84.2910,0.414,1111122 
COMPS,ioos:station:USF.COMPS:SHP:1,2011-06-01T20:06:00Z,30.0600,-84.2910,0.379,1111122 
COMPS,ioos:station:USF.COMPS:SHP:1,2011-06-01T20:12:00Z,30.0600,-84.2910,0.347,1111122 
COMPS,ioos:station:USF.COMPS:SHP:1,2011-06-01T20:18:00Z,30.0600,-84.2910,0.335,1111122 
COMPS,ioos:station:USF.COMPS:SHP:1,2011-06-01T20:24:00Z,30.0600,-84.2910,0.321,1111122 
COMPS,ioos:station:USF.COMPS:SHP:1,2011-06-01T20:30:00Z,30.0600,-84.2910,0.294,1111122 
COMPS,ioos:station:USF.COMPS:SHP:1,2011-06-01T20:36:00Z,30.0600,-84.2910,0.27,1111122 
COMPS,ioos:station:USF.COMPS:SHP:1,2011-06-01T20:42:00Z,30.0600,-84.2910,0.247,1111122 
COMPS,ioos:station:USF.COMPS:SHP:1,2011-06-01T20:48:00Z,30.0600,-84.2910,0.211,1111122 
COMPS,ioos:station:USF.COMPS:SHP:1,2011-06-01T20:54:00Z,30.0600,-84.2910,0.18,1111122 
COMPS,ioos:station:USF.COMPS:SHP:1,2011-06-01T21:00:00Z,30.0600,-84.2910,0.153,1111122 
COMPS,ioos:station:USF.COMPS:SHP:1,2011-06-01T21:06:00Z,30.0600,-84.2910,0.124,1111122 
COMPS,ioos:station:USF.COMPS:SHP:1,2011-06-01T21:12:00Z,30.0600,-84.2910,0.094,1111122 
COMPS,ioos:station:USF.COMPS:SHP:1,2011-06-01T21:18:00Z,30.0600,-84.2910,0.068,1111122 
COMPS,ioos:station:USF.COMPS:SHP:1,2011-06-01T21:24:00Z,30.0600,-84.2910,0.035,1111122 
COMPS,ioos:station:USF.COMPS:SHP:1,2011-06-01T21:30:00Z,30.0600,-84.2910,0.003,1111122 
COMPS,ioos:station:USF.COMPS:SHP:1,2011-06-01T21:36:00Z,30.0600,-84.2910,-0.022,1111122 
COMPS,ioos:station:USF.COMPS:SHP:1,2011-06-01T21:42:00Z,30.0600,-84.2910,-0.051,1111122 
COMPS,ioos:station:USF.COMPS:SHP:1,2011-06-01T21:48:00Z,30.0600,-84.2910,-0.081,1111122 
COMPS,ioos:station:USF.COMPS:SHP:1,2011-06-01T21:54:00Z,30.0600,-84.2910,-0.112,1111122 
COMPS,ioos:station:USF.COMPS:SHP:1,2011-06-01T22:00:00Z,30.0600,-84.2910,-0.14,1111122 
COMPS,ioos:station:USF.COMPS:SHP:1,2011-06-01T22:06:00Z,30.0600,-84.2910,-0.16,1111122 
COMPS,ioos:station:USF.COMPS:SHP:1,2011-06-01T22:12:00Z,30.0600,-84.2910,-0.186,1111122 
COMPS,ioos:station:USF.COMPS:SHP:1,2011-06-01T22:18:00Z,30.0600,-84.2910,-0.217,1111122 
COMPS,ioos:station:USF.COMPS:SHP:1,2011-06-01T22:24:00Z,30.0600,-84.2910,-0.245,1111122 
COMPS,ioos:station:USF.COMPS:SHP:1,2011-06-01T22:30:00Z,30.0600,-84.2910,-0.268,1111122 
COMPS,ioos:station:USF.COMPS:SHP:1,2011-06-01T22:36:00Z,30.0600,-84.2910,-0.297,1111122 
COMPS,ioos:station:USF.COMPS:SHP:1,2011-06-01T22:42:00Z,30.0600,-84.2910,-0.326,1111122 
COMPS,ioos:station:USF.COMPS:SHP:1,2011-06-01T22:48:00Z,30.0600,-84.2910,-0.35,1111122 
COMPS,ioos:station:USF.COMPS:SHP:1,2011-06-01T22:54:00Z,30.0600,-84.2910,-0.373,1111122 
COMPS,ioos:station:USF.COMPS:SHP:1,2011-06-01T23:00:00Z,30.0600,-84.2910,-0.394,1111122 
COMPS,ioos:station:USF.COMPS:SHP:1,2011-06-01T23:06:00Z,30.0600,-84.2910,-0.415,1111122 
COMPS,ioos:station:USF.COMPS:SHP:1,2011-06-01T23:12:00Z,30.0600,-84.2910,-0.433,1111122 
COMPS,ioos:station:USF.COMPS:SHP:1,2011-06-01T23:18:00Z,30.0600,-84.2910,-0.448,1111122 
COMPS,ioos:station:USF.COMPS:SHP:1,2011-06-01T23:24:00Z,30.0600,-84.2910,-0.455,1111122 
COMPS,ioos:station:USF.COMPS:SHP:1,2011-06-01T23:30:00Z,30.0600,-84.2910,-0.441,1111122 
COMPS,ioos:station:USF.COMPS:SHP:1,2011-06-01T23:36:00Z,30.0600,-84.2910,-0.391,1111122 
COMPS,ioos:station:USF.COMPS:SHP:1,2011-06-01T23:42:00Z,30.0600,-84.2910,-0.335,1111122 
COMPS,ioos:station:USF.COMPS:SHP:1,2011-06-01T23:48:00Z,30.0600,-84.2910,-0.293,1111122 
COMPS,ioos:station:USF.COMPS:SHP:1,2011-06-01T23:54:00Z,30.0600,-84.2910,-0.285,1111122 
COMPS,ioos:station:USF.COMPS:SHP:1,2011-06-02T00:00:00Z,30.0600,-84.2910,-0.335,1111122 
COMPS,ioos:station:USF.COMPS:SHP:1,2011-06-02T00:06:00Z,30.0600,-84.2910,-0.392,1111122 
COMPS,ioos:station:USF.COMPS:SHP:1,2011-06-02T00:12:00Z,30.0600,-84.2910,-0.434,1111122 
COMPS,ioos:station:USF.COMPS:SHP:1,2011-06-02T00:18:00Z,30.0600,-84.2910,-0.466,1111122 
COMPS,ioos:station:USF.COMPS:SHP:1,2011-06-02T00:24:00Z,30.0600,-84.2910,-0.504,1111122 
COMPS,ioos:station:USF.COMPS:SHP:1,2011-06-02T00:30:00Z,30.0600,-84.2910,-0.542,1111122 
COMPS,ioos:station:USF.COMPS:SHP:1,2011-06-02T00:36:00Z,30.0600,-84.2910,-0.572,1111122 
COMPS,ioos:station:USF.COMPS:SHP:1,2011-06-02T00:42:00Z,30.0600,-84.2910,-0.581,1111122 
COMPS,ioos:station:USF.COMPS:SHP:1,2011-06-02T00:48:00Z,30.0600,-84.2910,-0.588,1111122 
COMPS,ioos:station:USF.COMPS:SHP:1,2011-06-02T00:54:00Z,30.0600,-84.2910,-0.599,1111122 
COMPS,ioos:station:USF.COMPS:SHP:1,2011-06-02T01:00:00Z,30.0600,-84.2910,-0.603,1111122 
COMPS,ioos:station:USF.COMPS:SHP:1,2011-06-02T01:06:00Z,30.0600,-84.2910,-0.595,1111122 
COMPS,ioos:station:USF.COMPS:SHP:1,2011-06-02T01:12:00Z,30.0600,-84.2910,-0.569,1111122 
COMPS,ioos:station:USF.COMPS:SHP:1,2011-06-02T01:18:00Z,30.0600,-84.2910,-0.552,1111122 
COMPS,ioos:station:USF.COMPS:SHP:1,2011-06-02T01:24:00Z,30.0600,-84.2910,-0.568,1111122 
COMPS,ioos:station:USF.COMPS:SHP:1,2011-06-02T01:30:00Z,30.0600,-84.2910,-0.592,1111122 
COMPS,ioos:station:USF.COMPS:SHP:1,2011-06-02T01:36:00Z,30.0600,-84.2910,-0.605,1111122 
COMPS,ioos:station:USF.COMPS:SHP:1,2011-06-02T01:42:00Z,30.0600,-84.2910,-0.624,1111122 
COMPS,ioos:station:USF.COMPS:SHP:1,2011-06-02T01:48:00Z,30.0600,-84.2910,-0.651,1111122 
COMPS,ioos:station:USF.COMPS:SHP:1,2011-06-02T01:54:00Z,30.0600,-84.2910,-0.673,1111122 
COMPS,ioos:station:USF.COMPS:SHP:1,2011-06-02T02:00:00Z,30.0600,-84.2910,-0.687,1111122 
COMPS,ioos:station:USF.COMPS:SHP:1,2011-06-02T02:06:00Z,30.0600,-84.2910,-0.702,1111122 
COMPS,ioos:station:USF.COMPS:SHP:1,2011-06-02T02:12:00Z,30.0600,-84.2910,-0.719,1111122 
COMPS,ioos:station:USF.COMPS:SHP:1,2011-06-02T02:18:00Z,30.0600,-84.2910,-0.737,1111122 
COMPS,ioos:station:USF.COMPS:SHP:1,2011-06-02T02:24:00Z,30.0600,-84.2910,-0.757,1111122 
COMPS,ioos:station:USF.COMPS:SHP:1,2011-06-02T02:30:00Z,30.0600,-84.2910,-0.77,1111122 
COMPS,ioos:station:USF.COMPS:SHP:1,2011-06-02T02:36:00Z,30.0600,-84.2910,-0.771,1111122 
COMPS,ioos:station:USF.COMPS:SHP:1,2011-06-02T02:42:00Z,30.0600,-84.2910,-0.773,1111122 
COMPS,ioos:station:USF.COMPS:SHP:1,2011-06-02T02:48:00Z,30.0600,-84.2910,-0.783,1111122 
COMPS,ioos:station:USF.COMPS:SHP:1,2011-06-02T02:54:00Z,30.0600,-84.2910,-0.787,1111122 
COMPS,ioos:station:USF.COMPS:SHP:1,2011-06-02T03:00:00Z,30.0600,-84.2910,-0.777,1111122 
COMPS,ioos:station:USF.COMPS:SHP:1,2011-06-02T03:06:00Z,30.0600,-84.2910,-0.758,1111122 
COMPS,ioos:station:USF.COMPS:SHP:1,2011-06-02T03:12:00Z,30.0600,-84.2910,-0.737,1111122 
COMPS,ioos:station:USF.COMPS:SHP:1,2011-06-02T03:18:00Z,30.0600,-84.2910,-0.717,1111122 
COMPS,ioos:station:USF.COMPS:SHP:1,2011-06-02T03:24:00Z,30.0600,-84.2910,-0.695,1111122 
COMPS,ioos:station:USF.COMPS:SHP:1,2011-06-02T03:30:00Z,30.0600,-84.2910,-0.671,1111122 
COMPS,ioos:station:USF.COMPS:SHP:1,2011-06-02T03:36:00Z,30.0600,-84.2910,-0.646,1111122 
COMPS,ioos:station:USF.COMPS:SHP:1,2011-06-02T03:42:00Z,30.0600,-84.2910,-0.626,1111122 
COMPS,ioos:station:USF.COMPS:SHP:1,2011-06-02T03:48:00Z,30.0600,-84.2910,-0.606,1111122 
COMPS,ioos:station:USF.COMPS:SHP:1,2011-06-02T03:54:00Z,30.0600,-84.2910,-0.586,1111122 
COMPS,ioos:station:USF.COMPS:SHP:1,2011-06-02T04:00:00Z,30.0600,-84.2910,-0.563,1111122 
COMPS,ioos:station:USF.COMPS:SHP:1,2011-06-02T04:06:00Z,30.0600,-84.2910,-0.533,1111122 
COMPS,ioos:station:USF.COMPS:SHP:1,2011-06-02T04:12:00Z,30.0600,-84.2910,-0.496,1111122 
COMPS,ioos:station:USF.COMPS:SHP:1,2011-06-02T04:18:00Z,30.0600,-84.2910,-0.454,1111122 
COMPS,ioos:station:USF.COMPS:SHP:1,2011-06-02T04:24:00Z,30.0600,-84.2910,-0.417,1111122 
COMPS,ioos:station:USF.COMPS:SHP:1,2011-06-02T04:30:00Z,30.0600,-84.2910,-0.379,1111122 
COMPS,ioos:station:USF.COMPS:SHP:1,2011-06-02T04:36:00Z,30.0600,-84.2910,-0.339,1111122 
COMPS,ioos:station:USF.COMPS:SHP:1,2011-06-02T04:42:00Z,30.0600,-84.2910,-0.292,1111122 
COMPS,ioos:station:USF.COMPS:SHP:1,2011-06-02T04:48:00Z,30.0600,-84.2910,-0.251,1111122 
COMPS,ioos:station:USF.COMPS:SHP:1,2011-06-02T04:54:00Z,30.0600,-84.2910,-0.211,1111122 